Simultaneous Nadir Overpasses (SNOs) Predictions

Prediction of SNOs between GOES-14 and NOAA-20 Satellite Orbit:

Table of predicted SNOs for the next 14.0 days since TLE Epoch: 10/28/2023
Index Date Time (GOES-14) GOES-14 Lat,Lon NOAA-20 Lat,Lon Distance(km) Time Diff (sec)
1 10/28/2023 08:55:19 0.11,-108.62 1.02,-112.70 465.00 80
2 10/29/2023 08:39:16 0.13,-108.63 0.01,-108.18 51.43 80
3 10/31/2023 20:39:50 -0.12,-108.57 -0.19,-108.96 44.99 80
4 11/01/2023 20:23:47 -0.13,-108.57 0.82,-104.44 471.27 80
5 11/03/2023 08:42:56 0.10,-108.63 0.36,-109.72 124.09 80
6 11/04/2023 08:26:53 0.11,-108.63 -0.66,-105.19 392.16 80
7 11/05/2023 20:46:11 -0.08,-108.57 -0.52,-110.50 220.56 80
8 11/06/2023 20:30:08 -0.09,-108.57 0.50,-105.98 295.90 80
9 11/08/2023 08:49:18 0.06,-108.64 0.62,-111.27 298.93 80
10 11/09/2023 08:33:14 0.07,-108.64 -0.34,-106.73 217.67 80
11 11/10/2023 20:52:32 -0.05,-108.59 -0.83,-112.05 394.65 80
